Location: Cactus School
(34.5700°N, 118.0931°W)
Time: 12:39:10
(UTC-07:00)

Courier 1B - All Passes

Search period start: 19 April 2024 00:00
Search period end: 29 April 2024 00:00
Orbit: 962 x 1208 km, 28.3° (Epoch: 18 April)

Date Brightness Start Highest point End Pass type
(mag) Time Alt. Az. Time Alt. Az. Time Alt. Az.
19 Apr - 01:43:16 10° SSW 01:49:13 26° SSE 01:54:54 10° ESE visible
19 Apr - 03:35:58 10° WSW 03:42:52 45° S 03:49:22 10° E visible
19 Apr - 05:29:53 10° WSW 05:36:38 50° S 05:43:01 10° ESE visible
19 Apr - 07:24:17 10° W 07:30:11 32° SSW 07:35:53 10° SE daylight
19 Apr - 09:20:49 10° SW 09:23:21 12° SSW 09:25:53 10° S daylight
20 Apr - 00:50:04 10° SSW 00:55:26 21° SSE 01:00:38 10° ESE night (unlit)
20 Apr - 02:42:09 10° SW 02:49:04 41° SSE 02:55:34 10° E visible
20 Apr - 04:35:54 10° WSW 04:42:51 52° S 04:49:23 10° ESE visible
20 Apr - 06:30:12 10° W 06:36:32 39° SSW 06:42:33 10° SE daylight
20 Apr - 08:25:40 10° WSW 08:29:48 17° SSW 08:33:51 10° SSE daylight
20 Apr - 23:57:14 10° S 00:01:41 16° SSE 00:06:00 10° ESE night (unlit)
21 Apr - 01:48:26 10° SW 01:55:14 36° SSE 02:01:42 10° E visible
21 Apr - 03:41:56 10° WSW 03:49:02 52° S 03:55:43 10° ESE visible
21 Apr - 05:36:08 10° W 05:42:48 44° SSW 05:49:07 10° ESE visible
21 Apr - 07:31:05 10° WSW 07:36:12 23° SSW 07:41:09 10° SSE daylight
21 Apr - 23:05:14 10° S 23:07:54 12° SSE 23:10:33 10° SE night (unlit)
22 Apr - 00:54:50 10° SW 01:01:25 31° SSE 01:07:44 10° E night (unlit)
22 Apr - 02:47:58 10° WSW 02:55:11 50° S 03:01:59 10° E visible
22 Apr - 04:42:05 10° W 04:49:02 49° S 04:55:34 10° ESE visible
22 Apr - 06:36:46 10° WSW 06:42:34 29° SSW 06:48:08 10° SE daylight
23 Apr - 00:01:26 10° SSW 00:07:36 26° SSE 00:13:34 10° ESE night (unlit)
23 Apr - 01:54:04 10° WSW 02:01:19 46° S 02:08:12 10° E visible
23 Apr - 03:48:02 10° WSW 03:55:13 52° S 04:01:58 10° ESE visible
23 Apr - 05:42:32 10° W 05:48:53 35° SSW 05:54:55 10° SE visible
23 Apr - 07:38:48 10° WSW 07:42:07 14° SSW 07:45:22 10° S daylight
23 Apr - 23:08:19 10° SSW 23:13:47 21° SSE 23:19:10 10° ESE night (unlit)
24 Apr - 01:00:16 10° SW 01:07:27 42° SSE 01:14:19 10° E visible
24 Apr - 02:54:01 10° WSW 03:01:21 54° S 03:08:17 10° ESE visible
24 Apr - 04:48:22 10° W 04:55:10 41° SSW 05:01:34 10° SE visible
24 Apr - 06:43:47 10° WSW 06:48:31 19° SSW 06:53:05 10° SSE daylight
24 Apr - 22:15:37 10° S 22:20:00 16° SSE 22:24:20 10° ESE night (unlit)
25 Apr - 00:06:34 10° SW 00:13:34 36° SSE 00:20:22 10° E night (unlit)
25 Apr - 02:00:01 10° WSW 02:07:28 53° S 02:14:32 10° ESE visible
25 Apr - 03:54:15 10° W 04:01:22 47° S 04:08:04 10° ESE visible
25 Apr - 05:49:13 10° WSW 05:54:53 25° SSW 06:00:18 10° SSE daylight
25 Apr - 21:24:01 10° SSE 21:26:13 11° SSE 21:28:26 10° SE visible
25 Apr - 23:13:02 10° SW 23:19:42 31° SSE 23:26:15 10° E night (unlit)
26 Apr - 01:06:03 10° WSW 01:13:32 50° S 01:20:43 10° E visible
26 Apr - 03:00:09 10° W 03:07:31 51° S 03:14:27 10° ESE visible
26 Apr - 04:54:51 10° W 05:01:12 32° SSW 05:07:13 10° SE visible
26 Apr - 06:52:30 10° SW 06:54:23 11° SSW 06:56:14 10° SSW daylight
26 Apr - 22:19:45 10° SSW 22:25:52 25° SSE 22:31:57 10° ESE visible
27 Apr - 00:12:12 10° WSW 00:19:37 46° SSE 00:26:50 10° E night (unlit)
27 Apr - 02:06:06 10° WSW 02:13:37 54° S 02:20:46 10° ESE visible
27 Apr - 04:00:36 10° W 04:07:27 38° SSW 04:13:54 10° SE visible
27 Apr - 05:56:36 10° WSW 06:00:46 16° SSW 06:04:49 10° S daylight
27 Apr - 21:26:46 10° SSW 21:32:04 20° SSE 21:37:23 10° ESE visible
27 Apr - 23:18:27 10° SW 23:25:42 41° SSE 23:32:51 10° E visible
28 Apr - 01:12:05 10° WSW 01:19:40 55° S 01:27:00 10° ESE night (unlit)
28 Apr - 03:06:25 10° W 03:13:37 44° SSW 03:20:27 10° SE visible
28 Apr - 05:01:43 10° WSW 05:07:07 22° SSW 05:12:18 10° SSE visible
28 Apr - 20:34:20 10° S 20:38:18 15° SSE 20:42:17 10° ESE visible
28 Apr - 22:24:51 10° SW 22:31:47 35° SSE 22:38:44 10° E visible
